Погода в Насирии

Ирак     31°02′35″N   46°15′34″E
темп.,
°C
ветер,
м/с
пор.,
м/с
влажн.,
%
обл.,
%
осадки,
мм/ч
давл.,
гПа
погр.,
м
21 апреля, ср
ср2100:00+33ююв331163 0.0 100811
03:00+30зюз331429 0.0 100811
06:00+29ю33148 0.0 100912
09:00+36ююв33994 0.0 1010385
12:00+41ююв346100 0.0 10092544
15:00+42юв546100 0.0 10073583
18:00+39юв457100 0.0 100765
21:00+35ююв588100 0.0 1008100
22 апреля, чт
чт2200:00+32ю569100 0.0 100969
03:00+30ю4412100 0.0 100931
06:00+29ююв33165 0.0 101027
09:00+34ю12125 0.0 1011456
12:00+40вюв347100 0.0 10101747
15:00+42вюв65688 0.0 10073304
18:00+39в337100 0.0 100735
21:00+36всв228100 0.0 100811
23 апреля, пт
пт2300:00+32ююз2413100 0.0 100857
03:00+31в441468 0.0 100825
06:00+30ю3316100 0.0 100934
09:00+36ссз55135 0.0 1010588
12:00+40с43920 0.0 10081784
15:00+42ссз337100 0.0 10063937
18:00+40с45871 0.0 100674
21:00+35ссз7141322 0.0 1007289
24 апреля, сб
сб2400:00+33с91812100 0.0 1007454
03:00+31с51213100 0.0 1006192
06:00+30сз341466 0.0 100870
09:00+36ссз67963 0.0 1009691
12:00+41с64878 0.0 10082606
15:00+42с63889 0.0 10064039
18:00+39ссз68995 0.0 1006262
21:00+35с61211100 0.0 1007191
25 апреля, вс
вс2500:00+33с715921 0.0 1007300
03:00+30ссз4910100 0.0 1008122
06:00+29с479100 0.0 1009107
09:00+36ссв45677 0.0 1010405
12:00+41ссв444100 0.0 10081915
15:00+42с565100 0.0 10064158
18:00+39ссз7107100 0.0 1006252
21:00+35ссв6138100 0.0 1006193